| time (UTC) | temp C | wind direction | speed KPH | gust KPH | rain 1hr cm | rain 24hr cm | rain mn cm | humidity % | barometer mb |
| 20260509085834 | 11 | 318 | 0.0 | 0.0 | 0.00 | 0.00 | 0.00 | 87 | 1022.1 |
| 20260509085313 | 11 | 318 | 0.0 | 0.0 | 0.00 | 0.00 | 0.00 | 86 | 1022.1 |
| 20260509084322 | 11 | 318 | 0.0 | 0.0 | 0.00 | 0.00 | 0.00 | 85 | 1022.2 |
| 20260509083825 | 11 | 318 | 0.0 | 0.0 | 0.00 | 0.00 | 0.00 | 85 | 1022.2 |
| 20260509083325 | 11 | 318 | 0.0 | 0.0 | 0.00 | 0.00 | 0.00 | 84 | 1022.3 |
| 20260509082814 | 11 | 318 | 0.0 | 0.0 | 0.00 | 0.00 | 0.00 | 85 | 1022.4 |
| 20260509082312 | 11 | 318 | 0.0 | 0.0 | 0.00 | 0.00 | 0.00 | 84 | 1022.5 |
| 20260509081815 | 11 | 318 | 0.0 | 0.0 | 0.00 | 0.00 | 0.00 | 84 | 1022.4 |
| 20260509081321 | 11 | 317 | 0.0 | 0.0 | 0.00 | 0.00 | 0.00 | 84 | 1022.5 |
| 20260509080824 | 12 | 318 | 0.0 | 0.0 | 0.00 | 0.00 | 0.00 | 84 | 1022.6 |
| 20260509080330 | 11 | 318 | 0.0 | 0.0 | 0.00 | 0.00 | 0.00 | 84 | 1022.6 |
| 20260509075813 | 11 | 32 | 0.0 | 0.0 | 0.00 | 0.00 | 0.00 | 84 | 1022.6 |
| 20260509075312 | 12 | 332 | 0.0 | 0.0 | 0.00 | 0.00 | 0.00 | 84 | 1022.6 |
| 20260509074822 | 12 | 332 | 0.0 | 4.8 | 0.00 | 0.00 | 0.00 | 84 | 1022.6 |
| 20260509074321 | 12 | 332 | 0.0 | 4.8 | 0.00 | 0.00 | 0.00 | 84 | 1022.7 |
| 20260509073823 | 12 | 342 | 0.0 | 1.6 | 0.00 | 0.00 | 0.00 | 84 | 1022.6 |
| 20260509073330 | 12 | 336 | 0.0 | 6.4 | 0.00 | 0.00 | 0.00 | 84 | 1022.6 |
| 20260509072832 | 12 | 319 | 0.0 | 6.4 | 0.00 | 0.00 | 0.00 | 84 | 1022.6 |
| 20260509072311 | 12 | 322 | 0.0 | 0.0 | 0.00 | 0.00 | 0.00 | 84 | 1022.7 |
| 20260509071821 | 12 | 332 | 0.0 | 0.0 | 0.00 | 0.00 | 0.00 | 85 | 1022.7 |
| 20260509071321 | 12 | 335 | 0.0 | 0.0 | 0.00 | 0.00 | 0.00 | 84 | 1022.7 |
| 20260509070820 | 12 | 335 | 0.0 | 0.0 | 0.00 | 0.00 | 0.00 | 84 | 1022.7 |
| 20260509070326 | 12 | 305 | 0.0 | 3.2 | 0.00 | 0.00 | 0.00 | 84 | 1022.7 |
| 20260509065829 | 12 | 2 | 0.0 | 0.0 | 0.00 | 0.00 | 0.00 | 84 | 1022.7 |
| 20260509065335 | 12 | 105 | 0.0 | 0.0 | 0.00 | 0.00 | 0.00 | 83 | 1022.7 |
| 20260509064818 | 12 | 342 | 0.0 | 0.0 | 0.00 | 0.00 | 0.00 | 82 | 1022.7 |
| 20260509064317 | 12 | 101 | 0.0 | 0.0 | 0.00 | 0.00 | 0.00 | 82 | 1022.6 |
| 20260509063826 | 12 | 135 | 0.0 | 0.0 | 0.00 | 0.00 | 0.00 | 82 | 1022.7 |
| 20260509063326 | 12 | 135 | 0.0 | 0.0 | 0.00 | 0.00 | 0.00 | 81 | 1022.7 |
| 20260509062828 | 12 | 135 | 0.0 | 0.0 | 0.00 | 0.00 | 0.00 | 81 | 1022.7 |
| 20260509062315 | 12 | 316 | 0.0 | 0.0 | 0.00 | 0.00 | 0.00 | 81 | 1022.7 |
| 20260509061818 | 13 | 326 | 0.0 | 0.0 | 0.00 | 0.00 | 0.00 | 80 | 1022.6 |
| 20260509061317 | 13 | 326 | 0.0 | 0.0 | 0.00 | 0.00 | 0.00 | 80 | 1022.6 |
| 20260509060827 | 13 | 331 | 0.0 | 1.6 | 0.00 | 0.00 | 0.00 | 79 | 1022.6 |
| 20260509060326 | 13 | 351 | 0.0 | 0.0 | 0.00 | 0.00 | 0.00 | 79 | 1022.6 |
| 20260509055836 | 13 | 77 | 0.0 | 0.0 | 0.00 | 0.00 | 0.00 | 79 | 1022.6 |
| 20260509055317 | 13 | 329 | 0.0 | 0.0 | 0.00 | 0.00 | 0.00 | 79 | 1022.7 |
| 20260509054819 | 13 | 331 | 0.0 | 0.0 | 0.00 | 0.00 | 0.00 | 78 | 1022.7 |
| 20260509054318 | 13 | 331 | 0.0 | 1.6 | 0.00 | 0.00 | 0.00 | 78 | 1022.6 |
| 20260509053828 | 13 | 340 | 0.0 | 1.6 | 0.00 | 0.00 | 0.00 | 78 | 1022.6 |
| 20260509053328 | 13 | 338 | 0.0 | 0.0 | 0.00 | 0.00 | 0.00 | 78 | 1022.5 |
| 20260509052837 | 13 | 339 | 0.0 | 0.0 | 0.00 | 0.00 | 0.00 | 77 | 1022.5 |
| 20260509052316 | 13 | 326 | 0.0 | 0.0 | 0.00 | 0.00 | 0.00 | 77 | 1022.5 |
| 20260509051819 | 13 | 121 | 0.0 | 0.0 | 0.00 | 0.00 | 0.00 | 77 | 1022.4 |
| 20260509051325 | 13 | 99 | 0.0 | 0.0 | 0.00 | 0.00 | 0.00 | 76 | 1022.4 |
| 20260509050315 | 14 | 326 | 0.0 | 0.0 | 0.00 | 0.00 | 0.00 | 75 | 1022.4 |
| 20260509045824 | 14 | 297 | 0.0 | 0.0 | 0.00 | 0.00 | 0.00 | 74 | 1022.3 |
| 20260509045324 | 14 | 297 | 0.0 | 0.0 | 0.00 | 0.00 | 0.00 | 74 | 1022.2 |
| 20260509044826 | 15 | 297 | 0.0 | 0.0 | 0.00 | 0.00 | 0.00 | 73 | 1022.2 |
| 20260509044333 | 15 | 103 | 0.0 | 3.2 | 0.00 | 0.00 | 0.00 | 73 | 1022.2 |
| 20260509043823 | 15 | 311 | 0.0 | 3.2 | 0.00 | 0.00 | 0.00 | 72 | 1022.1 |
| 20260509043319 | 15 | 360 | 0.0 | 1.6 | 0.00 | 0.00 | 0.00 | 71 | 1022.1 |
| 20260509042828 | 15 | 115 | 0.0 | 0.0 | 0.00 | 0.00 | 0.00 | 70 | 1022.0 |
| 20260509042412 | 15 | 319 | 0.0 | 1.6 | 0.00 | 0.00 | 0.00 | 70 | 1021.9 |
| 20260509041813 | 15 | 346 | 0.0 | 1.6 | 0.00 | 0.00 | 0.00 | 69 | 1021.9 |
| 20260509041312 | 15 | 145 | 0.0 | 6.4 | 0.00 | 0.00 | 0.00 | 68 | 1021.9 |
| 20260509040821 | 15 | 318 | 0.0 | 6.4 | 0.00 | 0.00 | 0.00 | 68 | 1021.9 |
| 20260509040321 | 16 | 326 | 0.0 | 6.4 | 0.00 | 0.00 | 0.00 | 68 | 1021.8 |
| 20260509035830 | 16 | 4 | 1.6 | 6.4 | 0.00 | 0.00 | 0.00 | 67 | 1021.8 |
| 20260509035329 | 16 | 349 | 0.0 | 4.8 | 0.00 | 0.00 | 0.00 | 66 | 1021.8 |
| 20260509034813 | 16 | 335 | 1.6 | 12.9 | 0.00 | 0.00 | 0.00 | 66 | 1021.7 |
| 20260509034312 | 16 | 337 | 0.0 | 12.9 | 0.00 | 0.00 | 0.00 | 65 | 1021.7 |
| 20260509033829 | 16 | 105 | 0.0 | 4.8 | 0.00 | 0.00 | 0.00 | 65 | 1021.7 |
| 20260509033328 | 16 | 342 | 1.6 | 4.8 | 0.00 | 0.00 | 0.00 | 64 | 1021.6 |
| 20260509032838 | 16 | 355 | 0.0 | 4.8 | 0.00 | 0.00 | 0.00 | 64 | 1021.6 |
| 20260509032317 | 16 | 9 | 0.0 | 4.8 | 0.00 | 0.00 | 0.00 | 63 | 1021.5 |
| 20260509031819 | 16 | 329 | 0.0 | 4.8 | 0.00 | 0.00 | 0.00 | 63 | 1021.5 |
| 20260509031326 | 16 | 359 | 0.0 | 6.4 | 0.00 | 0.00 | 0.00 | 62 | 1021.5 |
| 20260509030828 | 16 | 333 | 0.0 | 6.4 | 0.00 | 0.00 | 0.00 | 62 | 1021.4 |
| 20260509030327 | 17 | 356 | 0.0 | 6.4 | 0.00 | 0.00 | 0.00 | 62 | 1021.4 |
| 20260509025817 | 17 | 314 | 0.0 | 6.4 | 0.00 | 0.00 | 0.00 | 61 | 1021.4 |
| 20260509025316 | 17 | 309 | 0.0 | 6.4 | 0.00 | 0.00 | 0.00 | 60 | 1021.4 |
| 20260509024819 | 17 | 322 | 0.0 | 8.0 | 0.00 | 0.00 | 0.00 | 60 | 1021.3 |
| 20260509024325 | 17 | 20 | 0.0 | 8.0 | 0.00 | 0.00 | 0.00 | 60 | 1021.3 |
| 20260509023334 | 17 | 340 | 0.0 | 8.0 | 0.00 | 0.00 | 0.00 | 58 | 1021.2 |
| 20260509022824 | 18 | 326 | 0.0 | 0.0 | 0.00 | 0.00 | 0.00 | 58 | 1021.1 |
| 20260509022322 | 18 | 344 | 0.0 | 0.0 | 0.00 | 0.00 | 0.00 | 57 | 1021.1 |
| 20260509021825 | 18 | 345 | 0.0 | 0.0 | 0.00 | 0.00 | 0.00 | 57 | 1021.2 |
| 20260509021331 | 18 | 333 | 0.0 | 8.0 | 0.00 | 0.00 | 0.00 | 56 | 1021.1 |
| 20260509020814 | 18 | 316 | 3.2 | 8.0 | 0.00 | 0.00 | 0.00 | 55 | 1021.2 |
| 20260509020313 | 18 | 88 | 0.0 | 0.0 | 0.00 | 0.00 | 0.00 | 56 | 1021.2 |
| 20260509015822 | 18 | 307 | 0.0 | 8.0 | 0.00 | 0.00 | 0.00 | 55 | 1021.2 |
| 20260509015321 | 18 | 290 | 0.0 | 8.0 | 0.00 | 0.00 | 0.00 | 56 | 1021.2 |
| 20260509014828 | 18 | 26 | 0.0 | 0.0 | 0.00 | 0.00 | 0.00 | 55 | 1021.2 |
| 20260509014327 | 18 | 285 | 0.0 | 0.0 | 0.00 | 0.00 | 0.00 | 56 | 1021.1 |
| 20260509013826 | 18 | 326 | 0.0 | 8.0 | 0.00 | 0.00 | 0.00 | 55 | 1021.2 |
| 20260509013333 | 18 | 328 | 0.0 | 9.7 | 0.00 | 0.00 | 0.00 | 55 | 1021.2 |
| 20260509012816 | 18 | 27 | 0.0 | 6.4 | 0.00 | 0.00 | 0.00 | 55 | 1021.2 |
| 20260509012314 | 18 | 252 | 0.0 | 9.7 | 0.00 | 0.00 | 0.00 | 54 | 1021.3 |
| 20260509011824 | 18 | 353 | 0.0 | 9.7 | 0.00 | 0.00 | 0.00 | 54 | 1021.3 |
| 20260509011323 | 18 | 319 | 0.0 | 6.4 | 0.00 | 0.00 | 0.00 | 55 | 1021.3 |
| 20260509010833 | 18 | 353 | 0.0 | 6.4 | 0.00 | 0.00 | 0.00 | 54 | 1021.4 |
| 20260509010312 | 18 | 20 | 0.0 | 11.3 | 0.00 | 0.00 | 0.00 | 53 | 1021.4 |
| 20260509005815 | 18 | 349 | 3.2 | 14.5 | 0.00 | 0.00 | 0.00 | 52 | 1021.4 |
| 20260509005314 | 19 | 332 | 3.2 | 14.5 | 0.00 | 0.00 | 0.00 | 52 | 1021.5 |
| 20260509004824 | 19 | 11 | 0.0 | 8.0 | 0.00 | 0.00 | 0.00 | 51 | 1021.4 |
| 20260509004323 | 19 | 302 | 1.6 | 8.0 | 0.00 | 0.00 | 0.00 | 51 | 1021.4 |
| 20260509003833 | 20 | 320 | 1.6 | 8.0 | 0.00 | 0.00 | 0.00 | 51 | 1021.4 |
| 20260509003312 | 19 | 312 | 0.0 | 6.4 | 0.00 | 0.00 | 0.00 | 52 | 1021.4 |
| 20260509002408 | 18 | 316 | 3.2 | 8.0 | 0.00 | 0.00 | 0.00 | 53 | 1021.4 |
| 20260509001833 | 18 | 124 | 0.0 | 1.6 | 0.00 | 0.00 | 0.00 | 53 | 1021.4 |
| 20260509001319 | 18 | 295 | 0.0 | 3.2 | 0.00 | 0.00 | 0.00 | 53 | 1021.4 |
| 20260509000821 | 18 | 294 | 0.0 | 4.8 | 0.00 | 0.00 | 0.00 | 54 | 1021.5 |
| 20260509000327 | 18 | 316 | 1.6 | 4.8 | 0.00 | 0.00 | 0.00 | 54 | 1021.6 |
| 20260508235831 | 18 | 276 | 0.0 | 0.0 | 0.00 | 0.00 | 0.00 | 54 | 1021.6 |
| 20260508235331 | 18 | 161 | 0.0 | 6.4 | 0.00 | 0.00 | 0.00 | 55 | 1021.6 |
| 20260508234813 | 18 | 1 | 3.2 | 8.0 | 0.00 | 0.00 | 0.00 | 53 | 1021.6 |
| 20260508234319 | 18 | 314 | 3.2 | 8.0 | 0.00 | 0.00 | 0.00 | 53 | 1021.6 |
| 20260508233822 | 18 | 206 | 0.0 | 4.8 | 0.00 | 0.00 | 0.00 | 54 | 1021.5 |
| 20260508233349 | 18 | 272 | 1.6 | 12.9 | 0.00 | 0.00 | 0.00 | 54 | 1021.5 |
| 20260508232838 | 18 | 290 | 1.6 | 12.9 | 0.00 | 0.00 | 0.00 | 54 | 1021.6 |
| 20260508232337 | 18 | 330 | 4.8 | 11.3 | 0.00 | 0.00 | 0.00 | 54 | 1021.6 |
| 20260508231846 | 18 | 309 | 0.0 | 8.0 | 0.00 | 0.00 | 0.00 | 54 | 1021.6 |
| 20260508231352 | 18 | 258 | 0.0 | 4.8 | 0.00 | 0.00 | 0.00 | 54 | 1021.6 |
| 20260508230834 | 18 | 358 | 0.0 | 9.7 | 0.00 | 0.00 | 0.00 | 53 | 1021.5 |
| 20260508230341 | 18 | 341 | 1.6 | 9.7 | 0.00 | 0.00 | 0.00 | 53 | 1021.5 |
| 20260508225850 | 18 | 14 | 0.0 | 1.6 | 0.00 | 0.00 | 0.00 | 53 | 1021.6 |
| 20260508225328 | 18 | 169 | 0.0 | 11.3 | 0.00 | 0.00 | 0.00 | 55 | 1021.6 |
| 20260508224838 | 18 | 159 | 1.6 | 11.3 | 0.00 | 0.00 | 0.00 | 52 | 1021.6 |
| 20260508224317 | 18 | 337 | 1.6 | 6.4 | 0.00 | 0.00 | 0.00 | 53 | 1021.6 |
| 20260508223819 | 18 | 327 | 1.6 | 6.4 | 0.00 | 0.00 | 0.00 | 54 | 1021.7 |
| 20260508223333 | 18 | 173 | 1.6 | 11.3 | 0.00 | 0.00 | 0.00 | 52 | 1021.7 |
| 20260508222816 | 18 | 323 | 1.6 | 11.3 | 0.00 | 0.00 | 0.00 | 52 | 1021.7 |
| 20260508222314 | 19 | 201 | 0.0 | 1.6 | 0.00 | 0.00 | 0.00 | 51 | 1021.7 |
| 20260508221816 | 18 | 39 | 0.0 | 11.3 | 0.00 | 0.00 | 0.00 | 53 | 1021.8 |
| 20260508221323 | 18 | 225 | 1.6 | 11.3 | 0.00 | 0.00 | 0.00 | 53 | 1021.8 |
| 20260508220825 | 18 | 200 | 0.0 | 8.0 | 0.00 | 0.00 | 0.00 | 54 | 1021.8 |
| 20260508215828 | 18 | 173 | 3.2 | 9.7 | 0.00 | 0.00 | 0.00 | 54 | 1021.8 |
| 20260508215327 | 18 | 162 | 1.6 | 11.3 | 0.00 | 0.00 | 0.00 | 54 | 1021.8 |
| 20260508214836 | 17 | 300 | 3.2 | 11.3 | 0.00 | 0.00 | 0.00 | 55 | 1021.8 |
| 20260508214316 | 18 | 148 | 0.0 | 8.0 | 0.00 | 0.00 | 0.00 | 54 | 1021.8 |
| 20260508213817 | 18 | 191 | 0.0 | 8.0 | 0.00 | 0.00 | 0.00 | 55 | 1021.8 |
| 20260508213317 | 17 | 120 | 0.0 | 6.4 | 0.00 | 0.00 | 0.00 | 57 | 1021.8 |
| 20260508212826 | 17 | 330 | 1.6 | 6.4 | 0.00 | 0.00 | 0.00 | 55 | 1021.8 |
| 20260508212325 | 17 | 219 | 0.0 | 6.4 | 0.00 | 0.00 | 0.00 | 55 | 1021.8 |
| 20260508211835 | 18 | 311 | 0.0 | 4.8 | 0.00 | 0.00 | 0.00 | 55 | 1021.9 |
| 20260508211314 | 17 | 169 | 0.0 | 11.3 | 0.00 | 0.00 | 0.00 | 56 | 1021.8 |
| 20260508210817 | 17 | 150 | 6.4 | 12.9 | 0.00 | 0.00 | 0.00 | 56 | 1021.9 |
| 20260508210323 | 17 | 148 | 3.2 | 12.9 | 0.00 | 0.00 | 0.00 | 55 | 1021.8 |
| 20260508205826 | 17 | 14 | 0.0 | 8.0 | 0.00 | 0.00 | 0.00 | 56 | 1021.8 |
| 20260508205325 | 17 | 329 | 0.0 | 4.8 | 0.00 | 0.00 | 0.00 | 57 | 1021.8 |
| 20260508204835 | 16 | 6 | 0.0 | 12.9 | 0.00 | 0.00 | 0.00 | 58 | 1021.8 |
| 20260508204314 | 16 | 308 | 3.2 | 12.9 | 0.00 | 0.00 | 0.00 | 58 | 1021.9 |
| 20260508203816 | 16 | 289 | 3.2 | 9.7 | 0.00 | 0.00 | 0.00 | 56 | 1021.9 |
| 20260508203323 | 17 | 117 | 1.6 | 6.4 | 0.00 | 0.00 | 0.00 | 56 | 1021.9 |
| 20260508202826 | 16 | 153 | 0.0 | 6.4 | 0.00 | 0.00 | 0.00 | 57 | 1021.9 |
| 20260508202333 | 16 | 220 | 1.6 | 9.7 | 0.00 | 0.00 | 0.00 | 58 | 1021.9 |
| 20260508201816 | 16 | 357 | 1.6 | 9.7 | 0.00 | 0.00 | 0.00 | 58 | 1022.0 |
| 20260508201314 | 16 | 128 | 0.0 | 9.7 | 0.00 | 0.00 | 0.00 | 59 | 1022.0 |
| 20260508200816 | 16 | 172 | 3.2 | 12.9 | 0.00 | 0.00 | 0.00 | 59 | 1022.0 |
| 20260508200323 | 15 | 131 | 1.6 | 12.9 | 0.00 | 0.00 | 0.00 | 60 | 1022.0 |
| 20260508195832 | 15 | 267 | 3.2 | 9.7 | 0.00 | 0.00 | 0.00 | 59 | 1022.0 |
| 20260508195311 | 16 | 191 | 1.6 | 16.1 | 0.00 | 0.00 | 0.00 | 59 | 1022.0 |
| 20260508194327 | 16 | 181 | 4.8 | 14.5 | 0.00 | 0.00 | 0.00 | 59 | 1022.1 |
| 20260508193815 | 15 | 240 | 0.0 | 12.9 | 0.00 | 0.00 | 0.00 | 62 | 1022.2 |
| 20260508193314 | 15 | 319 | 4.8 | 12.9 | 0.00 | 0.00 | 0.00 | 57 | 1022.0 |
| 20260508192823 | 16 | 303 | 3.2 | 12.9 | 0.00 | 0.00 | 0.00 | 58 | 1022.0 |
| 20260508192329 | 15 | 27 | 0.0 | 8.0 | 0.00 | 0.00 | 0.00 | 61 | 1022.0 |
| 20260508191838 | 15 | 302 | 1.6 | 9.7 | 0.00 | 0.00 | 0.00 | 61 | 1022.0 |
| 20260508190820 | 15 | 182 | 0.0 | 8.0 | 0.00 | 0.00 | 0.00 | 62 | 1022.1 |
| 20260508190326 | 15 | 296 | 1.6 | 8.0 | 0.00 | 0.00 | 0.00 | 62 | 1022.2 |
| 20260508185828 | 14 | 302 | 0.0 | 9.7 | 0.00 | 0.00 | 0.00 | 65 | 1022.2 |
| 20260508185335 | 13 | 209 | 1.6 | 9.7 | 0.00 | 0.00 | 0.00 | 65 | 1022.2 |
| 20260508184818 | 13 | 323 | 4.8 | 8.0 | 0.00 | 0.00 | 0.00 | 65 | 1022.3 |
| 20260508183827 | 14 | 257 | 0.0 | 6.4 | 0.00 | 0.00 | 0.00 | 65 | 1022.2 |
| 20260508183333 | 14 | 136 | 0.0 | 4.8 | 0.00 | 0.00 | 0.00 | 64 | 1022.3 |
| 20260508182837 | 14 | 109 | 1.6 | 9.7 | 0.00 | 0.00 | 0.00 | 64 | 1022.3 |
| 20260508182343 | 14 | 221 | 1.6 | 9.7 | 0.00 | 0.00 | 0.00 | 62 | 1022.2 |
| 20260508181939 | 14 | 126 | 0.0 | 4.8 | 0.00 | 0.00 | 0.00 | 65 | 1022.2 |
| 20260508181351 | 13 | 211 | 0.0 | 3.2 | 0.00 | 0.00 | 0.00 | 69 | 1022.0 |
| 20260508180840 | 12 | 46 | 0.0 | 9.7 | 0.00 | 0.00 | 0.00 | 69 | 1022.1 |
| 20260508180336 | 12 | 313 | 3.2 | 9.7 | 0.00 | 0.00 | 0.00 | 69 | 1022.0 |
| 20260508175853 | 13 | 313 | 0.0 | 9.7 | 0.00 | 0.00 | 0.00 | 67 | 1022.0 |
| 20260508175339 | 13 | 91 | 1.6 | 6.4 | 0.00 | 0.00 | 0.00 | 66 | 1021.9 |
| 20260508174841 | 13 | 268 | 0.0 | 4.8 | 0.00 | 0.00 | 0.00 | 69 | 1021.9 |
| 20260508174348 | 13 | 146 | 0.0 | 9.7 | 0.00 | 0.00 | 0.00 | 69 | 1021.9 |
| 20260508173834 | 13 | 293 | 1.6 | 9.7 | 0.00 | 0.00 | 0.00 | 69 | 1021.8 |
| 20260508173333 | 12 | 163 | 1.6 | 9.7 | 0.00 | 0.00 | 0.00 | 74 | 1021.8 |
| 20260508172843 | 12 | 134 | 0.0 | 4.8 | 0.00 | 0.00 | 0.00 | 76 | 1021.8 |
| 20260508172349 | 12 | 303 | 1.6 | 4.8 | 0.00 | 0.00 | 0.00 | 75 | 1021.7 |
| 20260508171859 | 12 | 313 | 0.0 | 8.0 | 0.00 | 0.00 | 0.00 | 75 | 1021.7 |
| 20260508171338 | 12 | 179 | 1.6 | 8.0 | 0.00 | 0.00 | 0.00 | 74 | 1021.6 |
| 20260508170847 | 12 | 307 | 0.0 | 6.4 | 0.00 | 0.00 | 0.00 | 76 | 1021.6 |
| 20260508170325 | 12 | 323 | 0.0 | 6.4 | 0.00 | 0.00 | 0.00 | 76 | 1021.5 |
| 20260508165835 | 11 | 137 | 0.0 | 3.2 | 0.00 | 0.00 | 0.00 | 77 | 1021.4 |
| 20260508165314 | 11 | 297 | 0.0 | 4.8 | 0.00 | 0.00 | 0.00 | 79 | 1021.4 |
| 20260508164817 | 11 | 300 | 0.0 | 1.6 | 0.00 | 0.00 | 0.00 | 78 | 1021.4 |
| 20260508164323 | 11 | 264 | 0.0 | 1.6 | 0.00 | 0.00 | 0.00 | 77 | 1021.3 |
| 20260508163825 | 11 | 359 | 0.0 | 0.0 | 0.00 | 0.00 | 0.00 | 78 | 1021.0 |
| 20260508163325 | 11 | 98 | 0.0 | 0.0 | 0.00 | 0.00 | 0.00 | 78 | 1021.1 |
| 20260508162815 | 11 | 309 | 0.0 | 0.0 | 0.00 | 0.00 | 0.00 | 79 | 1021.0 |
| 20260508162314 | 11 | 248 | 0.0 | 1.6 | 0.00 | 0.00 | 0.00 | 79 | 1021.1 |
| 20260508161816 | 11 | 122 | 0.0 | 6.4 | 0.00 | 0.00 | 0.00 | 79 | 1021.0 |
| 20260508161324 | 11 | 157 | 1.6 | 6.4 | 0.00 | 0.00 | 0.00 | 80 | 1021.2 |
| 20260508160826 | 10 | 282 | 0.0 | 4.8 | 0.00 | 0.00 | 0.00 | 80 | 1021.2 |
| 20260508160332 | 11 | 310 | 0.0 | 3.2 | 0.00 | 0.00 | 0.00 | 80 | 1020.8 |
| 20260508155815 | 11 | 182 | 0.0 | 3.2 | 0.00 | 0.00 | 0.00 | 79 | 1020.8 |
| 20260508155314 | 10 | 292 | 0.0 | 1.6 | 0.00 | 0.00 | 0.00 | 81 | 1020.9 |
| 20260508154824 | 10 | 288 | 0.0 | 3.2 | 0.00 | 0.00 | 0.00 | 81 | 1020.9 |
| 20260508154323 | 10 | 360 | 0.0 | 3.2 | 0.00 | 0.00 | 0.00 | 82 | 1020.9 |
| 20260508153826 | 10 | 103 | 0.0 | 3.2 | 0.00 | 0.00 | 0.00 | 82 | 1021.0 |
| 20260508153332 | 10 | 144 | 0.0 | 4.8 | 0.00 | 0.00 | 0.00 | 82 | 1020.8 |
| 20260508152815 | 10 | 157 | 1.6 | 8.0 | 0.00 | 0.00 | 0.00 | 83 | 1020.8 |
| 20260508151829 | 10 | 157 | 0.0 | 6.4 | 0.00 | 0.00 | 0.00 | 83 | 1020.8 |
| 20260508151328 | 10 | 144 | 1.6 | 6.4 | 0.00 | 0.00 | 0.00 | 83 | 1020.9 |
| 20260508150830 | 10 | 138 | 0.0 | 3.2 | 0.00 | 0.00 | 0.00 | 83 | 1020.9 |
| 20260508150318 | 10 | 141 | 0.0 | 0.0 | 0.00 | 0.00 | 0.00 | 84 | 1020.9 |
| 20260508145819 | 10 | 164 | 0.0 | 0.0 | 0.00 | 0.00 | 0.00 | 83 | 1020.9 |
| 20260508145318 | 9 | 160 | 0.0 | 0.0 | 0.00 | 0.00 | 0.00 | 84 | 1021.0 |
| 20260508144828 | 9 | 198 | 0.0 | 0.0 | 0.00 | 0.00 | 0.00 | 84 | 1021.0 |
| 20260508144327 | 9 | 191 | 0.0 | 0.0 | 0.00 | 0.00 | 0.00 | 85 | 1021.0 |
| 20260508143837 | 9 | 212 | 0.0 | 0.0 | 0.00 | 0.00 | 0.00 | 85 | 1021.0 |
| 20260508143315 | 9 | 318 | 0.0 | 1.6 | 0.00 | 0.00 | 0.00 | 85 | 1021.0 |
| 20260508142818 | 9 | 191 | 0.0 | 1.6 | 0.00 | 0.00 | 0.00 | 85 | 1021.0 |
| 20260508142317 | 9 | 339 | 0.0 | 3.2 | 0.00 | 0.00 | 0.00 | 85 | 1021.0 |
| 20260508141827 | 9 | 181 | 0.0 | 3.2 | 0.00 | 0.00 | 0.00 | 86 | 1021.0 |
| 20260508141326 | 9 | 316 | 0.0 | 0.0 | 0.00 | 0.00 | 0.00 | 85 | 1020.8 |
| 20260508140835 | 8 | 269 | 0.0 | 0.0 | 0.00 | 0.00 | 0.00 | 86 | 1020.8 |
| 20260508140314 | 8 | 299 | 0.0 | 0.0 | 0.00 | 0.00 | 0.00 | 87 | 1020.5 |
| 20260508135817 | 8 | 299 | 0.0 | 1.6 | 0.00 | 0.00 | 0.00 | 87 | 1020.5 |
| 20260508135323 | 8 | 165 | 0.0 | 0.0 | 0.00 | 0.00 | 0.00 | 88 | 1020.4 |
| 20260508134826 | 8 | 165 | 0.0 | 0.0 | 0.00 | 0.00 | 0.00 | 88 | 1020.2 |
| 20260508134324 | 8 | 112 | 0.0 | 0.0 | 0.00 | 0.00 | 0.00 | 87 | 1020.1 |
| 20260508133814 | 8 | 169 | 0.0 | 0.0 | 0.00 | 0.00 | 0.00 | 87 | 1020.1 |
| 20260508133313 | 8 | 169 | 0.0 | 0.0 | 0.00 | 0.00 | 0.00 | 87 | 1019.9 |
| 20260508132816 | 8 | 212 | 0.0 | 0.0 | 0.00 | 0.00 | 0.00 | 86 | 1019.8 |
| 20260508132322 | 8 | 223 | 0.0 | 1.6 | 0.00 | 0.00 | 0.00 | 86 | 1019.7 |
| 20260508131824 | 8 | 168 | 0.0 | 1.6 | 0.00 | 0.00 | 0.00 | 86 | 1019.7 |
| 20260508131331 | 8 | 193 | 0.0 | 0.0 | 0.00 | 0.00 | 0.00 | 86 | 1019.6 |
| 20260508130817 | 8 | 193 | 0.0 | 0.0 | 0.00 | 0.00 | 0.00 | 85 | 1019.5 |
| 20260508130323 | 8 | 214 | 0.0 | 0.0 | 0.00 | 0.00 | 0.00 | 85 | 1019.3 |
| 20260508125319 | 8 | 123 | 0.0 | 0.0 | 0.00 | 0.00 | 0.00 | 85 | 1019.2 |
| 20260508124820 | 8 | 123 | 0.0 | 0.0 | 0.00 | 0.00 | 0.00 | 84 | 1019.1 |
| 20260508124320 | 8 | 147 | 0.0 | 0.0 | 0.00 | 0.00 | 0.00 | 85 | 1019.0 |
| 20260508123829 | 8 | 128 | 0.0 | 0.0 | 0.00 | 0.00 | 0.00 | 85 | 1018.9 |
| 20260508123329 | 9 | 128 | 0.0 | 0.0 | 0.00 | 0.00 | 0.00 | 84 | 1019.0 |
| 20260508122318 | 9 | 129 | 0.0 | 1.6 | 0.00 | 0.00 | 0.00 | 84 | 1018.8 |
| 20260508121820 | 9 | 105 | 0.0 | 0.0 | 0.00 | 0.00 | 0.00 | 84 | 1018.8 |
| 20260508121326 | 9 | 136 | 0.0 | 1.6 | 0.00 | 0.00 | 0.00 | 83 | 1018.8 |
| 20260508120829 | 9 | 130 | 0.0 | 1.6 | 0.00 | 0.00 | 0.00 | 83 | 1018.8 |
| 20260508120328 | 9 | 99 | 0.0 | 0.0 | 0.00 | 0.00 | 0.00 | 83 | 1018.7 |
| 20260508115838 | 9 | 149 | 0.0 | 0.0 | 0.00 | 0.00 | 0.00 | 82 | 1018.8 |
| 20260508114826 | 10 | 149 | 0.0 | 0.0 | 0.00 | 0.00 | 0.00 | 81 | 1018.7 |
| 20260508114333 | 10 | 150 | 0.0 | 0.0 | 0.00 | 0.00 | 0.00 | 81 | 1018.6 |
| 20260508113815 | 10 | 133 | 0.0 | 1.6 | 0.00 | 0.00 | 0.00 | 81 | 1018.6 |
| 20260508113315 | 10 | 148 | 0.0 | 8.0 | 0.00 | 0.00 | 0.00 | 81 | 1018.5 |
| 20260508112824 | 10 | 131 | 3.2 | 8.0 | 0.00 | 0.00 | 0.00 | 81 | 1018.4 |
| 20260508112323 | 10 | 139 | 0.0 | 8.0 | 0.00 | 0.00 | 0.00 | 80 | 1018.4 |
| 20260508111826 | 10 | 147 | 1.6 | 8.0 | 0.00 | 0.00 | 0.00 | 80 | 1018.4 |
| 20260508111332 | 10 | 131 | 0.0 | 6.4 | 0.00 | 0.00 | 0.00 | 80 | 1018.2 |
| 20260508110814 | 10 | 141 | 0.0 | 6.4 | 0.00 | 0.00 | 0.00 | 79 | 1018.2 |
| 20260508110314 | 10 | 125 | 0.0 | 6.4 | 0.00 | 0.00 | 0.00 | 79 | 1018.0 |
| 20260508105821 | 11 | 161 | 0.0 | 8.0 | 0.00 | 0.00 | 0.00 | 78 | 1018.0 |
| 20260508105322 | 11 | 130 | 1.6 | 8.0 | 0.00 | 0.00 | 0.00 | 78 | 1018.0 |
| 20260508104832 | 11 | 133 | 0.0 | 1.6 | 0.00 | 0.00 | 0.00 | 78 | 1017.9 |
| 20260508104330 | 11 | 146 | 0.0 | 1.6 | 0.00 | 0.00 | 0.00 | 78 | 1017.9 |
| 20260508103813 | 11 | 130 | 0.0 | 1.6 | 0.00 | 0.00 | 0.00 | 79 | 1017.9 |